Tracking 25710 objects as of 7-Jul-2022
HD Live streaming from Space Station
objects crossing your sky now

FENGYUN 1C DEB

Track FENGYUN 1C DEB now!
10-day predictions


NORAD ID: 36687
Int'l Code: 1999-025DZH
Perigee: 823.0 km
Apogee: 957.8 km
Inclination: 98.7 °
Period: 102.6 minutes
Semi major axis: 7261 km
RCS: 0.0063 m2 (small)
Launch date: May 10, 1999
Source: People's Republic of China (PRC)
Launch site: Taiyaun Space Center, China (TSC)

Note: This is SATELLITE DEBRIS
aabbcc
Your satellite tracking list
Your tracking list is empty




NASA's NSSDC Master Catalog

Two Line Element Set (TLE):
1 36687U 99025DZH 22186.58992073 -.00000153  00000-0 -69219-4 0  9999
2 36687  98.6700 309.6502 0092844 187.7593 172.2143 14.03056932724325
Source of the keplerian elements: AFSPC